Date_Time,Julian_Date,Latitude,Longitude,Instrument_Depth,U,V,Speed,Direction
(yyyy-mm-dd hh:mn:ss UTC),(JD),(+ deg. North),(+ deg. East),(m),(cm/s),(cm/s),(cm/s),(deg True)
1982-10-18 20:00:00 UTC,2445261.333333,28.7317,-95.2428,0201,-6.69,-7.43,10.0000,222.0000
1982-10-18 20:30:00 UTC,2445261.354167,28.7317,-95.2428,0201,-7.36,-8.17,11.0000,222.0000
1982-10-18 21:00:00 UTC,2445261.375000,28.7317,-95.2428,0201,-7.71,-9.19,12.0000,220.0000
1982-10-18 21:30:00 UTC,2445261.395833,28.7317,-95.2428,0201,-7.55,-9.33,12.0000,219.0000
1982-10-18 22:00:00 UTC,2445261.416667,28.7317,-95.2428,0201,-7.39,-9.46,12.0000,218.0000
1982-10-18 22:30:00 UTC,2445261.437500,28.7317,-95.2428,0201,-8.23,-11.33,14.0000,216.0000
1982-10-18 23:00:00 UTC,2445261.458333,28.7317,-95.2428,0201,-8.82,-12.14,15.0000,216.0000
1982-10-18 23:30:00 UTC,2445261.479167,28.7317,-95.2428,0201,-10.23,-13.58,17.0000,217.0000
1982-10-19 00:00:00 UTC,2445261.500000,28.7317,-95.2428,0201,-11.08,-14.18,18.0000,218.0000
1982-10-19 00:30:00 UTC,2445261.520833,28.7317,-95.2428,0201,-11.57,-13.79,18.0000,220.0000
1982-10-19 01:00:00 UTC,2445261.541667,28.7317,-95.2428,0201,-10.93,-13.02,17.0000,220.0000
1982-10-19 01:30:00 UTC,2445261.562500,28.7317,-95.2428,0201,-10.70,-13.21,17.0000,219.0000
1982-10-19 02:00:00 UTC,2445261.583333,28.7317,-95.2428,0201,-10.70,-13.21,17.0000,219.0000
1982-10-19 02:30:00 UTC,2445261.604167,28.7317,-95.2428,0201,-10.50,-12.08,16.0000,221.0000
1982-10-19 03:00:00 UTC,2445261.625000,28.7317,-95.2428,0201,-10.50,-12.08,16.0000,221.0000
1982-10-19 03:30:00 UTC,2445261.645833,28.7317,-95.2428,0201,-9.64,-11.49,15.0000,220.0000
1982-10-19 04:00:00 UTC,2445261.666667,28.7317,-95.2428,0201,-8.81,-10.88,14.0000,219.0000
1982-10-19 04:30:00 UTC,2445261.687500,28.7317,-95.2428,0201,-7.82,-10.38,13.0000,217.0000
1982-10-19 05:00:00 UTC,2445261.708333,28.7317,-95.2428,0201,-6.54,-10.06,12.0000,213.0000
1982-10-19 05:30:00 UTC,2445261.729167,28.7317,-95.2428,0201,-5.50,-9.53,11.0000,210.0000
1982-10-19 06:00:00 UTC,2445261.750000,28.7317,-95.2428,0201,-5.16,-9.71,11.0000,208.0000
1982-10-19 06:30:00 UTC,2445261.770833,28.7317,-95.2428,0201,-5.45,-10.69,12.0000,207.0000
1982-10-19 07:00:00 UTC,2445261.791667,28.7317,-95.2428,0201,-4.88,-10.96,12.0000,204.0000
1982-10-19 07:30:00 UTC,2445261.812500,28.7317,-95.2428,0201,-4.69,-11.05,12.0000,203.0000
1982-10-19 08:00:00 UTC,2445261.833333,28.7317,-95.2428,0201,-5.08,-11.97,13.0000,203.0000
1982-10-19 08:30:00 UTC,2445261.854167,28.7317,-95.2428,0201,-5.29,-11.88,13.0000,204.0000
1982-10-19 09:00:00 UTC,2445261.875000,28.7317,-95.2428,0201,-6.34,-13.59,15.0000,205.0000
1982-10-19 09:30:00 UTC,2445261.895833,28.7317,-95.2428,0201,-6.51,-14.62,16.0000,204.0000
1982-10-19 10:00:00 UTC,2445261.916667,28.7317,-95.2428,0201,-6.74,-16.69,18.0000,202.0000
1982-10-19 10:30:00 UTC,2445261.937500,28.7317,-95.2428,0201,-6.50,-17.85,19.0000,200.0000
1982-10-19 11:00:00 UTC,2445261.958333,28.7317,-95.2428,0201,-7.53,-19.61,21.0000,201.0000
1982-10-19 11:30:00 UTC,2445261.979167,28.7317,-95.2428,0201,-9.35,-21.01,23.0000,204.0000
1982-10-19 12:00:00 UTC,2445262.000000,28.7317,-95.2428,0201,-10.57,-22.66,25.0000,205.0000
1982-10-19 12:30:00 UTC,2445262.020833,28.7317,-95.2428,0201,-11.80,-23.17,26.0000,207.0000
1982-10-19 13:00:00 UTC,2445262.041667,28.7317,-95.2428,0201,-13.09,-23.61,27.0000,209.0000
1982-10-19 13:30:00 UTC,2445262.062500,28.7317,-95.2428,0201,-13.50,-23.38,27.0000,210.0000
1982-10-19 14:00:00 UTC,2445262.083333,28.7317,-95.2428,0201,-12.61,-22.74,26.0000,209.0000
1982-10-19 14:30:00 UTC,2445262.104167,28.7317,-95.2428,0201,-12.21,-22.96,26.0000,208.0000
1982-10-19 15:00:00 UTC,2445262.125000,28.7317,-95.2428,0201,-11.74,-22.07,25.0000,208.0000
1982-10-19 15:30:00 UTC,2445262.145833,28.7317,-95.2428,0201,-12.12,-21.87,25.0000,209.0000
1982-10-19 16:00:00 UTC,2445262.166667,28.7317,-95.2428,0201,-12.12,-21.87,25.0000,209.0000
1982-10-19 16:30:00 UTC,2445262.187500,28.7317,-95.2428,0201,-12.50,-21.65,25.0000,210.0000
1982-10-19 17:00:00 UTC,2445262.208333,28.7317,-95.2428,0201,-13.62,-20.97,25.0000,213.0000
1982-10-19 17:30:00 UTC,2445262.229167,28.7317,-95.2428,0201,-14.11,-19.42,24.0000,216.0000
1982-10-19 18:00:00 UTC,2445262.250000,28.7317,-95.2428,0201,-14.16,-18.12,23.0000,218.0000
1982-10-19 18:30:00 UTC,2445262.270833,28.7317,-95.2428,0201,-14.43,-16.60,22.0000,221.0000
1982-10-19 19:00:00 UTC,2445262.291667,28.7317,-95.2428,0201,-14.85,-14.85,21.0000,225.0000
1982-10-19 19:30:00 UTC,2445262.312500,28.7317,-95.2428,0201,-14.12,-12.71,19.0000,228.0000
1982-10-19 20:00:00 UTC,2445262.333333,28.7317,-95.2428,0201,-13.38,-12.04,18.0000,228.0000
1982-10-19 20:30:00 UTC,2445262.354167,28.7317,-95.2428,0201,-13.21,-10.70,17.0000,231.0000
1982-10-19 21:00:00 UTC,2445262.375000,28.7317,-95.2428,0201,-12.86,-7.73,15.0000,239.0000
1982-10-19 21:30:00 UTC,2445262.395833,28.7317,-95.2428,0201,-12.69,-5.92,14.0000,245.0000
1982-10-19 22:00:00 UTC,2445262.416667,28.7317,-95.2428,0201,-11.97,-5.08,13.0000,247.0000
1982-10-19 22:30:00 UTC,2445262.437500,28.7317,-95.2428,0201,-11.88,-5.29,13.0000,246.0000
1982-10-19 23:00:00 UTC,2445262.458333,28.7317,-95.2428,0201,-11.68,-5.70,13.0000,244.0000
1982-10-19 23:30:00 UTC,2445262.479167,28.7317,-95.2428,0201,-11.48,-6.10,13.0000,242.0000
1982-10-20 00:00:00 UTC,2445262.500000,28.7317,-95.2428,0201,-11.26,-6.50,13.0000,240.0000
1982-10-20 00:30:00 UTC,2445262.520833,28.7317,-95.2428,0201,-12.00,-7.21,14.0000,239.0000
1982-10-20 01:00:00 UTC,2445262.541667,28.7317,-95.2428,0201,-11.61,-7.83,14.0000,236.0000
1982-10-20 01:30:00 UTC,2445262.562500,28.7317,-95.2428,0201,-11.18,-8.43,14.0000,233.0000
1982-10-20 02:00:00 UTC,2445262.583333,28.7317,-95.2428,0201,-11.33,-8.23,14.0000,234.0000
1982-10-20 02:30:00 UTC,2445262.604167,28.7317,-95.2428,0201,-10.78,-7.27,13.0000,236.0000
1982-10-20 03:00:00 UTC,2445262.625000,28.7317,-95.2428,0201,-10.78,-7.27,13.0000,236.0000
1982-10-20 03:30:00 UTC,2445262.645833,28.7317,-95.2428,0201,-10.78,-7.27,13.0000,236.0000
1982-10-20 04:00:00 UTC,2445262.666667,28.7317,-95.2428,0201,-10.06,-6.54,12.0000,237.0000
1982-10-20 04:30:00 UTC,2445262.687500,28.7317,-95.2428,0201,-10.18,-6.36,12.0000,238.0000
1982-10-20 05:00:00 UTC,2445262.708333,28.7317,-95.2428,0201,-9.23,-5.99,11.0000,237.0000
1982-10-20 05:30:00 UTC,2445262.729167,28.7317,-95.2428,0201,-9.23,-5.99,11.0000,237.0000
1982-10-20 06:00:00 UTC,2445262.750000,28.7317,-95.2428,0201,-9.12,-6.15,11.0000,236.0000
1982-10-20 06:30:00 UTC,2445262.770833,28.7317,-95.2428,0201,-10.06,-6.54,12.0000,237.0000
1982-10-20 07:00:00 UTC,2445262.791667,28.7317,-95.2428,0201,-9.71,-5.16,11.0000,242.0000
1982-10-20 07:30:00 UTC,2445262.812500,28.7317,-95.2428,0201,-10.20,-4.12,11.0000,248.0000
1982-10-20 08:00:00 UTC,2445262.833333,28.7317,-95.2428,0201,-9.34,-3.58,10.0000,249.0000
1982-10-20 08:30:00 UTC,2445262.854167,28.7317,-95.2428,0201,-9.06,-4.23,10.0000,245.0000
1982-10-20 09:00:00 UTC,2445262.875000,28.7317,-95.2428,0201,-9.06,-4.23,10.0000,245.0000
1982-10-20 09:30:00 UTC,2445262.895833,28.7317,-95.2428,0201,-8.22,-3.66,9.0000,246.0000
1982-10-20 10:00:00 UTC,2445262.916667,28.7317,-95.2428,0201,-8.02,-4.09,9.0000,243.0000
1982-10-20 10:30:00 UTC,2445262.937500,28.7317,-95.2428,0201,-8.29,-5.59,10.0000,236.0000
1982-10-20 11:00:00 UTC,2445262.958333,28.7317,-95.2428,0201,-8.29,-5.59,10.0000,236.0000
1982-10-20 11:30:00 UTC,2445262.979167,28.7317,-95.2428,0201,-8.39,-5.45,10.0000,237.0000
1982-10-20 12:00:00 UTC,2445263.000000,28.7317,-95.2428,0201,-8.63,-8.34,12.0000,226.0000
1982-10-20 12:30:00 UTC,2445263.020833,28.7317,-95.2428,0201,-9.18,-10.57,14.0000,221.0000
1982-10-20 13:00:00 UTC,2445263.041667,28.7317,-95.2428,0201,-11.32,-9.84,15.0000,229.0000
1982-10-20 13:30:00 UTC,2445263.062500,28.7317,-95.2428,0201,-12.99,-7.50,15.0000,240.0000
1982-10-20 14:00:00 UTC,2445263.083333,28.7317,-95.2428,0201,-13.39,-4.09,14.0000,253.0000
1982-10-20 14:30:00 UTC,2445263.104167,28.7317,-95.2428,0201,-13.79,-2.43,14.0000,260.0000
1982-10-20 15:00:00 UTC,2445263.125000,28.7317,-95.2428,0201,-12.87,-1.81,13.0000,262.0000
1982-10-20 15:30:00 UTC,2445263.145833,28.7317,-95.2428,0201,-11.99,-0.42,12.0000,268.0000
1982-10-20 16:00:00 UTC,2445263.166667,28.7317,-95.2428,0201,-10.94,1.15,11.0000,276.0000
1982-10-20 16:30:00 UTC,2445263.187500,28.7317,-95.2428,0201,-9.51,3.09,10.0000,288.0000
1982-10-20 17:00:00 UTC,2445263.208333,28.7317,-95.2428,0201,-10.18,6.36,12.0000,302.0000
1982-10-20 17:30:00 UTC,2445263.229167,28.7317,-95.2428,0201,-9.81,8.53,13.0000,311.0000
1982-10-20 18:00:00 UTC,2445263.250000,28.7317,-95.2428,0201,-6.69,7.43,10.0000,318.0000
1982-10-20 18:30:00 UTC,2445263.270833,28.7317,-95.2428,0201,-2.80,4.15,5.0000,326.0000
1982-10-20 19:00:00 UTC,2445263.291667,28.7317,-95.2428,0201,-0.00,0.00,0.0000,329.0000
1982-10-20 19:30:00 UTC,2445263.312500,28.7317,-95.2428,0201,1.03,-2.82,3.0000,160.0000
1982-10-20 20:00:00 UTC,2445263.333333,28.7317,-95.2428,0201,1.10,-3.85,4.0000,164.0000
1982-10-20 20:30:00 UTC,2445263.354167,28.7317,-95.2428,0201,0.95,-4.91,5.0000,169.0000
1982-10-20 21:00:00 UTC,2445263.375000,28.7317,-95.2428,0201,0.52,-4.97,5.0000,174.0000
1982-10-20 21:30:00 UTC,2445263.395833,28.7317,-95.2428,0201,0.35,-3.98,4.0000,175.0000
1982-10-20 22:00:00 UTC,2445263.416667,28.7317,-95.2428,0201,0.67,-2.92,3.0000,167.0000
1982-10-20 22:30:00 UTC,2445263.437500,28.7317,-95.2428,0201,0.31,-1.98,2.0000,171.0000
1982-10-20 23:00:00 UTC,2445263.458333,28.7317,-95.2428,0201,-0.97,-3.88,4.0000,194.0000
1982-10-20 23:30:00 UTC,2445263.479167,28.7317,-95.2428,0201,-3.09,-5.14,6.0000,211.0000
1982-10-21 00:00:00 UTC,2445263.500000,28.7317,-95.2428,0201,-4.86,-5.04,7.0000,224.0000
1982-10-21 00:30:00 UTC,2445263.520833,28.7317,-95.2428,0201,-6.22,-5.03,8.0000,231.0000
1982-10-21 01:00:00 UTC,2445263.541667,28.7317,-95.2428,0201,-5.36,-4.50,7.0000,230.0000
1982-10-21 01:30:00 UTC,2445263.562500,28.7317,-95.2428,0201,-3.18,-5.09,6.0000,212.0000
1982-10-21 02:00:00 UTC,2445263.583333,28.7317,-95.2428,0201,-0.56,-7.98,8.0000,184.0000
1982-10-21 02:30:00 UTC,2445263.604167,28.7317,-95.2428,0201,0.77,-10.97,11.0000,176.0000
1982-10-21 03:00:00 UTC,2445263.625000,28.7317,-95.2428,0201,-0.91,-12.97,13.0000,184.0000
1982-10-21 03:30:00 UTC,2445263.645833,28.7317,-95.2428,0201,-5.47,-12.89,14.0000,203.0000
1982-10-21 04:00:00 UTC,2445263.666667,28.7317,-95.2428,0201,-8.39,-12.44,15.0000,214.0000
1982-10-21 04:30:00 UTC,2445263.687500,28.7317,-95.2428,0201,-9.63,-12.78,16.0000,217.0000
1982-10-21 05:00:00 UTC,2445263.708333,28.7317,-95.2428,0201,-10.28,-12.26,16.0000,220.0000
1982-10-21 05:30:00 UTC,2445263.729167,28.7317,-95.2428,0201,-11.11,-11.51,16.0000,224.0000
1982-10-21 06:00:00 UTC,2445263.750000,28.7317,-95.2428,0201,-11.70,-10.91,16.0000,227.0000
1982-10-21 06:30:00 UTC,2445263.770833,28.7317,-95.2428,0201,-12.08,-10.50,16.0000,229.0000
1982-10-21 07:00:00 UTC,2445263.791667,28.7317,-95.2428,0201,-12.63,-11.38,17.0000,228.0000
1982-10-21 07:30:00 UTC,2445263.812500,28.7317,-95.2428,0201,-12.28,-13.16,18.0000,223.0000
1982-10-21 08:00:00 UTC,2445263.833333,28.7317,-95.2428,0201,-12.04,-13.38,18.0000,222.0000
1982-10-21 08:30:00 UTC,2445263.854167,28.7317,-95.2428,0201,-13.20,-13.67,19.0000,224.0000
1982-10-21 09:00:00 UTC,2445263.875000,28.7317,-95.2428,0201,-14.14,-14.14,20.0000,225.0000
1982-10-21 09:30:00 UTC,2445263.895833,28.7317,-95.2428,0201,-14.14,-14.14,20.0000,225.0000
1982-10-21 10:00:00 UTC,2445263.916667,28.7317,-95.2428,0201,-14.85,-14.85,21.0000,225.0000
1982-10-21 10:30:00 UTC,2445263.937500,28.7317,-95.2428,0201,-14.85,-14.85,21.0000,225.0000
1982-10-21 11:00:00 UTC,2445263.958333,28.7317,-95.2428,0201,-15.28,-15.83,22.0000,224.0000
1982-10-21 11:30:00 UTC,2445263.979167,28.7317,-95.2428,0201,-14.78,-17.62,23.0000,220.0000
1982-10-21 12:00:00 UTC,2445264.000000,28.7317,-95.2428,0201,-15.05,-19.97,25.0000,217.0000
1982-10-21 12:30:00 UTC,2445264.020833,28.7317,-95.2428,0201,-15.05,-19.97,25.0000,217.0000
1982-10-21 13:00:00 UTC,2445264.041667,28.7317,-95.2428,0201,-15.28,-21.03,26.0000,216.0000
1982-10-21 13:30:00 UTC,2445264.062500,28.7317,-95.2428,0201,-15.39,-19.70,25.0000,218.0000
1982-10-21 14:00:00 UTC,2445264.083333,28.7317,-95.2428,0201,-15.09,-17.36,23.0000,221.0000
1982-10-21 14:30:00 UTC,2445264.104167,28.7317,-95.2428,0201,-13.22,-16.32,21.0000,219.0000
1982-10-21 15:00:00 UTC,2445264.125000,28.7317,-95.2428,0201,-12.93,-16.55,21.0000,218.0000
1982-10-21 15:30:00 UTC,2445264.145833,28.7317,-95.2428,0201,-13.64,-14.63,20.0000,223.0000
1982-10-21 16:00:00 UTC,2445264.166667,28.7317,-95.2428,0201,-12.50,-12.95,18.0000,224.0000
1982-10-21 16:30:00 UTC,2445264.187500,28.7317,-95.2428,0201,-10.50,-12.08,16.0000,221.0000
1982-10-21 17:00:00 UTC,2445264.208333,28.7317,-95.2428,0201,-11.70,-10.91,16.0000,227.0000
1982-10-21 17:30:00 UTC,2445264.229167,28.7317,-95.2428,0201,-14.87,-8.24,17.0000,241.0000
1982-10-21 18:00:00 UTC,2445264.250000,28.7317,-95.2428,0201,-15.87,-6.09,17.0000,249.0000
1982-10-21 18:30:00 UTC,2445264.270833,28.7317,-95.2428,0201,-13.24,-4.56,14.0000,251.0000
1982-10-21 19:00:00 UTC,2445264.291667,28.7317,-95.2428,0201,-12.22,-4.45,13.0000,250.0000
1982-10-21 19:30:00 UTC,2445264.312500,28.7317,-95.2428,0201,-12.05,-4.87,13.0000,248.0000
1982-10-21 20:00:00 UTC,2445264.333333,28.7317,-95.2428,0201,-13.07,-5.02,14.0000,249.0000
1982-10-21 20:30:00 UTC,2445264.354167,28.7317,-95.2428,0201,-14.34,-4.39,15.0000,253.0000
1982-10-21 21:00:00 UTC,2445264.375000,28.7317,-95.2428,0201,-14.34,-4.39,15.0000,253.0000
1982-10-21 21:30:00 UTC,2445264.395833,28.7317,-95.2428,0201,-12.50,-3.58,13.0000,254.0000
1982-10-21 22:00:00 UTC,2445264.416667,28.7317,-95.2428,0201,-12.67,-2.92,13.0000,257.0000
1982-10-21 22:30:00 UTC,2445264.437500,28.7317,-95.2428,0201,-12.67,-2.92,13.0000,257.0000
1982-10-21 23:00:00 UTC,2445264.458333,28.7317,-95.2428,0201,-13.39,-4.09,14.0000,253.0000
1982-10-21 23:30:00 UTC,2445264.479167,28.7317,-95.2428,0201,-15.04,-5.47,16.0000,250.0000
1982-10-22 00:00:00 UTC,2445264.500000,28.7317,-95.2428,0201,-14.94,-5.73,16.0000,249.0000
1982-10-22 00:30:00 UTC,2445264.520833,28.7317,-95.2428,0201,-12.58,-6.14,14.0000,244.0000
1982-10-22 01:00:00 UTC,2445264.541667,28.7317,-95.2428,0201,-10.24,-8.00,13.0000,232.0000
1982-10-22 01:30:00 UTC,2445264.562500,28.7317,-95.2428,0201,-9.51,-8.87,13.0000,227.0000
1982-10-22 02:00:00 UTC,2445264.583333,28.7317,-95.2428,0201,-10.52,-7.64,13.0000,234.0000
1982-10-22 02:30:00 UTC,2445264.604167,28.7317,-95.2428,0201,-12.12,-7.00,14.0000,240.0000
1982-10-22 03:00:00 UTC,2445264.625000,28.7317,-95.2428,0201,-12.12,-7.00,14.0000,240.0000
1982-10-22 03:30:00 UTC,2445264.645833,28.7317,-95.2428,0201,-12.12,-7.00,14.0000,240.0000
1982-10-22 04:00:00 UTC,2445264.666667,28.7317,-95.2428,0201,-12.36,-6.57,14.0000,242.0000
1982-10-22 04:30:00 UTC,2445264.687500,28.7317,-95.2428,0201,-12.58,-6.14,14.0000,244.0000
1982-10-22 05:00:00 UTC,2445264.708333,28.7317,-95.2428,0201,-11.48,-6.10,13.0000,242.0000
1982-10-22 05:30:00 UTC,2445264.729167,28.7317,-95.2428,0201,-11.37,-6.30,13.0000,241.0000
1982-10-22 06:00:00 UTC,2445264.750000,28.7317,-95.2428,0201,-11.26,-6.50,13.0000,240.0000
1982-10-22 06:30:00 UTC,2445264.770833,28.7317,-95.2428,0201,-12.58,-8.17,15.0000,237.0000
1982-10-22 07:00:00 UTC,2445264.791667,28.7317,-95.2428,0201,-13.26,-8.95,16.0000,236.0000
1982-10-22 07:30:00 UTC,2445264.812500,28.7317,-95.2428,0201,-12.78,-9.63,16.0000,233.0000
1982-10-22 08:00:00 UTC,2445264.833333,28.7317,-95.2428,0201,-11.32,-9.84,15.0000,229.0000
1982-10-22 08:30:00 UTC,2445264.854167,28.7317,-95.2428,0201,-11.70,-10.91,16.0000,227.0000
1982-10-22 09:00:00 UTC,2445264.875000,28.7317,-95.2428,0201,-13.38,-12.04,18.0000,228.0000
1982-10-22 09:30:00 UTC,2445264.895833,28.7317,-95.2428,0201,-14.12,-12.71,19.0000,228.0000
1982-10-22 10:00:00 UTC,2445264.916667,28.7317,-95.2428,0201,-13.67,-13.20,19.0000,226.0000
1982-10-22 10:30:00 UTC,2445264.937500,28.7317,-95.2428,0201,-14.12,-12.71,19.0000,228.0000
1982-10-22 11:00:00 UTC,2445264.958333,28.7317,-95.2428,0201,-13.79,-11.57,18.0000,230.0000
1982-10-22 11:30:00 UTC,2445264.979167,28.7317,-95.2428,0201,-13.02,-10.93,17.0000,230.0000
1982-10-22 12:00:00 UTC,2445265.000000,28.7317,-95.2428,0201,-13.02,-10.93,17.0000,230.0000
1982-10-22 12:30:00 UTC,2445265.020833,28.7317,-95.2428,0201,-12.50,-12.95,18.0000,224.0000
1982-10-22 13:00:00 UTC,2445265.041667,28.7317,-95.2428,0201,-12.04,-15.97,20.0000,217.0000
1982-10-22 13:30:00 UTC,2445265.062500,28.7317,-95.2428,0201,-12.64,-16.77,21.0000,217.0000
1982-10-22 14:00:00 UTC,2445265.083333,28.7317,-95.2428,0201,-13.78,-15.85,21.0000,221.0000
1982-10-22 14:30:00 UTC,2445265.104167,28.7317,-95.2428,0201,-13.38,-14.86,20.0000,222.0000
1982-10-22 15:00:00 UTC,2445265.125000,28.7317,-95.2428,0201,-14.85,-14.85,21.0000,225.0000
1982-10-22 15:30:00 UTC,2445265.145833,28.7317,-95.2428,0201,-15.32,-12.86,20.0000,230.0000
1982-10-22 16:00:00 UTC,2445265.166667,28.7317,-95.2428,0201,-15.37,-11.17,19.0000,234.0000
1982-10-22 16:30:00 UTC,2445265.187500,28.7317,-95.2428,0201,-14.77,-11.96,19.0000,231.0000
1982-10-22 17:00:00 UTC,2445265.208333,28.7317,-95.2428,0201,-15.54,-12.59,20.0000,231.0000
1982-10-22 17:30:00 UTC,2445265.229167,28.7317,-95.2428,0201,-14.74,-10.32,18.0000,235.0000
1982-10-22 18:00:00 UTC,2445265.250000,28.7317,-95.2428,0201,-12.99,-7.50,15.0000,240.0000
1982-10-22 18:30:00 UTC,2445265.270833,28.7317,-95.2428,0201,-11.78,-5.49,13.0000,245.0000
1982-10-22 19:00:00 UTC,2445265.291667,28.7317,-95.2428,0201,-11.20,-4.30,12.0000,249.0000
1982-10-22 19:30:00 UTC,2445265.312500,28.7317,-95.2428,0201,-10.34,-3.76,11.0000,250.0000
1982-10-22 20:00:00 UTC,2445265.333333,28.7317,-95.2428,0201,-9.34,-3.58,10.0000,249.0000
1982-10-22 20:30:00 UTC,2445265.354167,28.7317,-95.2428,0201,-9.06,-4.23,10.0000,245.0000
1982-10-22 21:00:00 UTC,2445265.375000,28.7317,-95.2428,0201,-8.66,-5.00,10.0000,240.0000
1982-10-22 21:30:00 UTC,2445265.395833,28.7317,-95.2428,0201,-9.33,-5.83,11.0000,238.0000
1982-10-22 22:00:00 UTC,2445265.416667,28.7317,-95.2428,0201,-11.14,-6.70,13.0000,239.0000
1982-10-22 22:30:00 UTC,2445265.437500,28.7317,-95.2428,0201,-11.48,-6.10,13.0000,242.0000
1982-10-22 23:00:00 UTC,2445265.458333,28.7317,-95.2428,0201,-11.58,-5.90,13.0000,243.0000
1982-10-22 23:30:00 UTC,2445265.479167,28.7317,-95.2428,0201,-10.60,-5.63,12.0000,242.0000
1982-10-23 00:00:00 UTC,2445265.500000,28.7317,-95.2428,0201,-9.71,-5.16,11.0000,242.0000
1982-10-23 00:30:00 UTC,2445265.520833,28.7317,-95.2428,0201,-9.80,-4.99,11.0000,243.0000
1982-10-23 01:00:00 UTC,2445265.541667,28.7317,-95.2428,0201,-9.21,-3.91,10.0000,247.0000
1982-10-23 01:30:00 UTC,2445265.562500,28.7317,-95.2428,0201,-8.61,-2.63,9.0000,253.0000
1982-10-23 02:00:00 UTC,2445265.583333,28.7317,-95.2428,0201,-7.90,-1.25,8.0000,261.0000
1982-10-23 02:30:00 UTC,2445265.604167,28.7317,-95.2428,0201,-7.00,-0.24,7.0000,268.0000
1982-10-23 03:00:00 UTC,2445265.625000,28.7317,-95.2428,0201,-6.00,-0.10,6.0000,269.0000
1982-10-23 03:30:00 UTC,2445265.645833,28.7317,-95.2428,0201,-6.96,-0.73,7.0000,264.0000
1982-10-23 04:00:00 UTC,2445265.666667,28.7317,-95.2428,0201,-7.83,-1.66,8.0000,258.0000
1982-10-23 04:30:00 UTC,2445265.687500,28.7317,-95.2428,0201,-7.61,-2.47,8.0000,252.0000
1982-10-23 05:00:00 UTC,2445265.708333,28.7317,-95.2428,0201,-6.24,-3.18,7.0000,243.0000
1982-10-23 05:30:00 UTC,2445265.729167,28.7317,-95.2428,0201,-7.09,-5.54,9.0000,232.0000
1982-10-23 06:00:00 UTC,2445265.750000,28.7317,-95.2428,0201,-8.43,-7.07,11.0000,230.0000
1982-10-23 06:30:00 UTC,2445265.770833,28.7317,-95.2428,0201,-10.24,-8.00,13.0000,232.0000
1982-10-23 07:00:00 UTC,2445265.791667,28.7317,-95.2428,0201,-10.10,-8.18,13.0000,231.0000
1982-10-23 07:30:00 UTC,2445265.812500,28.7317,-95.2428,0201,-10.24,-9.55,14.0000,227.0000
1982-10-23 08:00:00 UTC,2445265.833333,28.7317,-95.2428,0201,-9.73,-10.07,14.0000,224.0000
1982-10-23 08:30:00 UTC,2445265.854167,28.7317,-95.2428,0201,-9.64,-11.49,15.0000,220.0000
1982-10-23 09:00:00 UTC,2445265.875000,28.7317,-95.2428,0201,-11.17,-15.37,19.0000,216.0000
1982-10-23 09:30:00 UTC,2445265.895833,28.7317,-95.2428,0201,-12.62,-18.02,22.0000,215.0000
1982-10-23 10:00:00 UTC,2445265.916667,28.7317,-95.2428,0201,-12.30,-18.24,22.0000,214.0000
1982-10-23 10:30:00 UTC,2445265.937500,28.7317,-95.2428,0201,-13.19,-18.84,23.0000,215.0000
1982-10-23 11:00:00 UTC,2445265.958333,28.7317,-95.2428,0201,-14.43,-16.60,22.0000,221.0000
1982-10-23 11:30:00 UTC,2445265.979167,28.7317,-95.2428,0201,-14.14,-16.85,22.0000,220.0000
1982-10-23 12:00:00 UTC,2445266.000000,28.7317,-95.2428,0201,-13.07,-20.13,24.0000,213.0000
1982-10-23 12:30:00 UTC,2445266.020833,28.7317,-95.2428,0201,-12.50,-21.65,25.0000,210.0000
1982-10-23 13:00:00 UTC,2445266.041667,28.7317,-95.2428,0201,-10.90,-21.38,24.0000,207.0000
1982-10-23 13:30:00 UTC,2445266.062500,28.7317,-95.2428,0201,-10.08,-20.67,23.0000,206.0000
1982-10-23 14:00:00 UTC,2445266.083333,28.7317,-95.2428,0201,-11.85,-19.71,23.0000,211.0000
1982-10-23 14:30:00 UTC,2445266.104167,28.7317,-95.2428,0201,-14.44,-19.17,24.0000,217.0000
1982-10-23 15:00:00 UTC,2445266.125000,28.7317,-95.2428,0201,-15.09,-17.36,23.0000,221.0000
1982-10-23 15:30:00 UTC,2445266.145833,28.7317,-95.2428,0201,-12.96,-13.90,19.0000,223.0000
1982-10-23 16:00:00 UTC,2445266.166667,28.7317,-95.2428,0201,-12.23,-11.81,17.0000,226.0000
1982-10-23 16:30:00 UTC,2445266.187500,28.7317,-95.2428,0201,-13.02,-10.93,17.0000,230.0000
1982-10-23 17:00:00 UTC,2445266.208333,28.7317,-95.2428,0201,-11.98,-9.03,15.0000,233.0000
1982-10-23 17:30:00 UTC,2445266.229167,28.7317,-95.2428,0201,-11.87,-7.42,14.0000,238.0000
1982-10-23 18:00:00 UTC,2445266.250000,28.7317,-95.2428,0201,-12.99,-7.50,15.0000,240.0000
1982-10-23 18:30:00 UTC,2445266.270833,28.7317,-95.2428,0201,-13.99,-7.76,16.0000,241.0000
1982-10-23 19:00:00 UTC,2445266.291667,28.7317,-95.2428,0201,-13.70,-6.10,15.0000,246.0000
1982-10-23 19:30:00 UTC,2445266.312500,28.7317,-95.2428,0201,-12.76,-2.48,13.0000,259.0000
1982-10-23 20:00:00 UTC,2445266.333333,28.7317,-95.2428,0201,-11.00,-0.00,11.0000,270.0000
1982-10-23 20:30:00 UTC,2445266.354167,28.7317,-95.2428,0201,-8.99,0.47,9.0000,273.0000
1982-10-23 21:00:00 UTC,2445266.375000,28.7317,-95.2428,0201,-6.91,1.10,7.0000,279.0000
1982-10-23 21:30:00 UTC,2445266.395833,28.7317,-95.2428,0201,-4.79,3.61,6.0000,307.0000
1982-10-23 22:00:00 UTC,2445266.416667,28.7317,-95.2428,0201,-2.34,7.65,8.0000,343.0000
1982-10-23 22:30:00 UTC,2445266.437500,28.7317,-95.2428,0201,0.94,8.95,9.0000,6.0000
1982-10-23 23:00:00 UTC,2445266.458333,28.7317,-95.2428,0201,3.40,10.46,11.0000,18.0000
1982-10-23 23:30:00 UTC,2445266.479167,28.7317,-95.2428,0201,4.79,13.16,14.0000,20.0000
1982-10-24 00:00:00 UTC,2445266.500000,28.7317,-95.2428,0201,4.79,13.16,14.0000,20.0000
1982-10-24 00:30:00 UTC,2445266.520833,28.7317,-95.2428,0201,4.66,12.14,13.0000,21.0000
1982-10-24 01:00:00 UTC,2445266.541667,28.7317,-95.2428,0201,4.88,10.96,12.0000,24.0000
1982-10-24 01:30:00 UTC,2445266.562500,28.7317,-95.2428,0201,5.50,9.53,11.0000,30.0000
1982-10-24 02:00:00 UTC,2445266.583333,28.7317,-95.2428,0201,6.62,8.78,11.0000,37.0000
1982-10-24 02:30:00 UTC,2445266.604167,28.7317,-95.2428,0201,7.07,8.43,11.0000,40.0000
1982-10-24 03:00:00 UTC,2445266.625000,28.7317,-95.2428,0201,6.56,7.55,10.0000,41.0000
1982-10-24 03:30:00 UTC,2445266.645833,28.7317,-95.2428,0201,6.25,6.47,9.0000,44.0000
1982-10-24 04:00:00 UTC,2445266.666667,28.7317,-95.2428,0201,6.89,5.79,9.0000,50.0000
1982-10-24 04:30:00 UTC,2445266.687500,28.7317,-95.2428,0201,7.37,5.16,9.0000,55.0000
1982-10-24 05:00:00 UTC,2445266.708333,28.7317,-95.2428,0201,7.00,3.88,8.0000,61.0000
1982-10-24 05:30:00 UTC,2445266.729167,28.7317,-95.2428,0201,6.62,2.28,7.0000,71.0000
1982-10-24 06:00:00 UTC,2445266.750000,28.7317,-95.2428,0201,7.88,1.39,8.0000,80.0000
1982-10-24 06:30:00 UTC,2445266.770833,28.7317,-95.2428,0201,7.96,0.84,8.0000,84.0000